Regional Weather Roundup
Issued by NWS

Home | Current Version | Previous Version | Text Only | Print | Product List | Glossary Off
Versions: 1 2 3 4 5 6 7 8 9 10 11 12 13 14 15 16 17 18 19 20 21 22 23 24 25 26 27 28 29 30 31 32 33 34 35 36 37 38 39 40 41 42 43 44 45 46 47 48 49 50

000
ASUS43 KTOP 041859
RWRKS

WEATHER ROUNDUP FOR KANSAS
NATIONAL WEATHER SERVICE GOODLAND KS
200 PM CDT TUE AUG 04 2015

NOTE:  "FAIR" INDICATES FEW OR NO CLOUDS BELOW 12,000 FEET WITH NO
SIGNIFICANT WEATHER AND/OR OBSTRUCTIONS TO VISIBILITY.

KSZ001>006-013>018-027>032-041>047-042000-
NORTHWEST KANSAS

CITY           SKY/WX    TMP DP  RH WIND       PRES   REMARKS
GOODLAND       MOSUNNY   89  54  30 SW9G18    29.93S
HAYS           MOSUNNY   88  63  42 S20G26    29.91S
HILL CITY      PTSUNNY   89  62  40 S12       29.90F
RUSSELL        PTSUNNY   85  65  51 S14       29.91F
$$

KSZ061>065-074>080-084>089-042000-
SOUTHWEST KANSAS

CITY           SKY/WX    TMP DP  RH WIND       PRES   REMARKS
DODGE CITY     MOSUNNY   84  65  52 SE16G23   29.94F
ELKHART          N/A     88  65  46 S8          N/A
GARDEN CITY    SUNNY     84  63  49 S10       29.92F
GREAT BEND     MOSUNNY   82  66  57 S20       29.92F
LIBERAL        SUNNY     88  64  45 S13       29.95F
$$

KSZ066>073-081>083-090>101-042000-
SOUTHEAST KANSAS

CITY           SKY/WX    TMP DP  RH WIND       PRES   REMARKS
CHANUTE        LGT RAIN  80  70  71 SW10      30.00S
COFFEYVILLE    LGT RAIN  76  72  87 SW8       30.02R
HUTCHINSON     LGT RAIN  79  69  71 S15       29.95F
NEWTON         CLOUDY    73  66  78 SE10      30.00F
PARSONS        LGT RAIN  77  73  87 SW6       30.03R
WICHITA INTL   CLOUDY    79  69  71 SE13      29.97F
WICHITA JABRA  CLOUDY    77  70  79 S13       29.98F
$$

KSZ007>012-019>026-033>040-048>060-102>105-042000-
NORTHEAST KANSAS

CITY           SKY/WX    TMP DP  RH WIND       PRES   REMARKS
CONCORDIA      MOSUNNY   82  72  71 E15G22    29.91F
EMPORIA        CLOUDY    81  68  64 S15       29.99R
LAWRENCE       CLOUDY    86  74  67 E8        29.95F
MANHATTAN      PTSUNNY   88  71  57 E9G18     29.91F
OLATHE IND     CLOUDY    86  68  54 E7        29.97F
OLATHE EXE     CLOUDY    83  72  69 NE15G21   29.96F
SALINA         LGT RAIN  77  69  76 S9        29.92F
TOPEKA BILLARD PTSUNNY   84  72  67 E9        29.94F
TOPEKA FORBES  PTSUNNY   88  68  51 SE9       29.95F
$$



USA.gov is the U.S. government's official web portal to all federal, state and local government web resources and services.